Previsão horária em Juchitán de Zaragoza

Hoje, 24 Junho, Quinta-feira

Tempo Temperatura Precipitação Vento Pressão Humidade
00:00 +27°C° 0 mm 1 m/s 759 mmHg 90%
01:00 +27°C° 0.1 mm 1 m/s 758 mmHg 90%
02:00 +27°C° 0.1 mm 1 m/s 758 mmHg 90%
03:00 +27°C° 0.1 mm 1 m/s 757 mmHg 90%
04:00 +27°C° 0 mm 1 m/s 757 mmHg 89%
05:00 +27°C° 0 mm 1 m/s 757 mmHg 89%
06:00 +26°C° 0 mm 1 m/s 757 mmHg 88%
07:00 +28°C° 0 mm 1 m/s 758 mmHg 81%
08:00 +29°C° 0 mm 1 m/s 758 mmHg 75%
09:00 +31°C° 0 mm 1 m/s 758 mmHg 68%
10:00 +32°C° 0 mm 1 m/s 758 mmHg 63%
11:00 +34°C° 0 mm 2 m/s 758 mmHg 57%
12:00 +36°C° 0 mm 3 m/s 757 mmHg 51%
13:00 +36°C° 0 mm 3 m/s 757 mmHg 52%
14:00 +36°C° 0 mm 3 m/s 756 mmHg 53%
15:00 +35°C° 0 mm 4 m/s 755 mmHg 54%
16:00 +34°C° 0.2 mm 3 m/s 756 mmHg 62%
17:00 +31°C° 0.2 mm 3 m/s 756 mmHg 70%
18:00 +30°C° 0.2 mm 2 m/s 756 mmHg 78%
19:00 +29°C° 0.5 mm 2 m/s 756 mmHg 81%
20:00 +28°C° 0.5 mm 2 m/s 757 mmHg 84%
21:00 +28°C° 0.5 mm 1 m/s 757 mmHg 86%
22:00 +27°C° 2 mm 2 m/s 758 mmHg 89%
23:00 +27°C° 2 mm 2 m/s 758 mmHg 92%

Amanhã, 25 Junho, Sexta-feira

Tempo Temperatura Precipitação Vento Pressão Humidade
00:00 +26°C° 2 mm 2 m/s 758 mmHg 94%
01:00 +26°C° 0.7 mm 2 m/s 758 mmHg 95%
02:00 +26°C° 0.7 mm 1 m/s 757 mmHg 95%
03:00 +26°C° 0.7 mm 1 m/s 757 mmHg 95%
04:00 +26°C° 0 mm 1 m/s 757 mmHg 94%
05:00 +26°C° 0 mm 1 m/s 757 mmHg 93%
06:00 +26°C° 0 mm 1 m/s 757 mmHg 93%
07:00 +27°C° 0.1 mm 1 m/s 757 mmHg 87%
08:00 +28°C° 0.1 mm 1 m/s 758 mmHg 82%
09:00 +29°C° 0.1 mm 1 m/s 758 mmHg 76%
10:00 +31°C° 0 mm 1 m/s 758 mmHg 70%
11:00 +30°C° 0 mm 0 m/s 757 mmHg 64%
12:00 +31°C° 0 mm 0 m/s 757 mmHg 58%
13:00 +33°C° 0 mm 1 m/s 756 mmHg 63%
14:00 +32°C° 0 mm 1 m/s 755 mmHg 67%
15:00 +31°C° 0 mm 2 m/s 755 mmHg 72%
16:00 +30°C° 0.1 mm 1 m/s 755 mmHg 75%
17:00 +29°C° 0.1 mm 1 m/s 755 mmHg 78%
18:00 +29°C° 0.1 mm 1 m/s 755 mmHg 82%
19:00 +28°C° 0.2 mm 1 m/s 755 mmHg 82%
20:00 +28°C° 0.2 mm 1 m/s 756 mmHg 82%
21:00 +28°C° 0.2 mm 1 m/s 757 mmHg 82%
22:00 +28°C° 0.4 mm 1 m/s 757 mmHg 84%
23:00 +27°C° 0.4 mm 1 m/s 757 mmHg 85%

Depois de amanhã, 26 Junho, Sábado

Tempo Temperatura Precipitação Vento Pressão Humidade
00:00 +27°C° 0.4 mm 1 m/s 757 mmHg 86%
01:00 +26°C° 0 mm 1 m/s 756 mmHg 86%
02:00 +26°C° 0 mm 1 m/s 756 mmHg 87%
03:00 +26°C° 0 mm 1 m/s 756 mmHg 87%
04:00 +25°C° 0 mm 1 m/s 756 mmHg 87%
05:00 +25°C° 0 mm 1 m/s 756 mmHg 86%
06:00 +25°C° 0 mm 1 m/s 756 mmHg 86%
07:00 +27°C° 0 mm 1 m/s 756 mmHg 80%
08:00 +28°C° 0 mm 1 m/s 756 mmHg 74%
09:00 +28°C° 0 mm 0 m/s 757 mmHg 68%
10:00 +31°C° 0 mm 1 m/s 756 mmHg 64%
11:00 +32°C° 0 mm 1 m/s 756 mmHg 59%
12:00 +34°C° 0 mm 2 m/s 756 mmHg 55%
13:00 +34°C° 0 mm 2 m/s 755 mmHg 56%
14:00 +34°C° 0 mm 3 m/s 755 mmHg 56%
15:00 +34°C° 0 mm 4 m/s 754 mmHg 57%
16:00 +33°C° 0 mm 4 m/s 754 mmHg 62%
17:00 +32°C° 0 mm 4 m/s 755 mmHg 68%
18:00 +30°C° 0 mm 4 m/s 755 mmHg 73%
19:00 +29°C° 0.1 mm 4 m/s 755 mmHg 76%
20:00 +28°C° 0.1 mm 3 m/s 756 mmHg 79%
21:00 +28°C° 0.1 mm 3 m/s 756 mmHg 82%
22:00 +28°C° 0.2 mm 3 m/s 756 mmHg 83%
23:00 +27°C° 0.2 mm 3 m/s 756 mmHg 84%

27 Junho, Domingo

Tempo Temperatura Precipitação Vento Pressão Humidade
00:00 +27°C° 0.2 mm 3 m/s 756 mmHg 86%
01:00 +27°C° 0.1 mm 3 m/s 756 mmHg 87%
02:00 +27°C° 0.1 mm 2 m/s 755 mmHg 88%
03:00 +26°C° 0.1 mm 2 m/s 755 mmHg 89%
04:00 +26°C° 0.5 mm 2 m/s 755 mmHg 91%
05:00 +26°C° 0.5 mm 2 m/s 755 mmHg 92%
06:00 +26°C° 0.5 mm 1 m/s 755 mmHg 94%
07:00 +27°C° 0.2 mm 2 m/s 756 mmHg 89%
08:00 +28°C° 0.2 mm 2 m/s 756 mmHg 84%
09:00 +29°C° 0.2 mm 2 m/s 756 mmHg 80%
10:00 +30°C° 0 mm 3 m/s 756 mmHg 75%
11:00 +31°C° 0 mm 3 m/s 756 mmHg 71%
12:00 +31°C° 0 mm 3 m/s 756 mmHg 66%
13:00 +32°C° 0.2 mm 4 m/s 756 mmHg 70%
14:00 +30°C° 0.2 mm 4 m/s 755 mmHg 73%
15:00 +30°C° 0.2 mm 4 m/s 755 mmHg 77%
16:00 +29°C° 0.2 mm 3 m/s 755 mmHg 79%
17:00 +29°C° 0.2 mm 3 m/s 755 mmHg 80%
18:00 +29°C° 0.2 mm 3 m/s 755 mmHg 82%
19:00 +28°C° 0.1 mm 2 m/s 755 mmHg 84%
20:00 +27°C° 0.1 mm 2 m/s 755 mmHg 87%
21:00 +27°C° 0.1 mm 2 m/s 756 mmHg 89%
22:00 +27°C° 0.1 mm 2 m/s 756 mmHg 89%
23:00 +27°C° 0.1 mm 2 m/s 756 mmHg 90%

28 Junho, Segunda-feira

Tempo Temperatura Precipitação Vento Pressão Humidade
00:00 +26°C° 0.1 mm 2 m/s 756 mmHg 90%
01:00 +26°C° 0.2 mm 2 m/s 756 mmHg 91%
02:00 +26°C° 0.2 mm 2 m/s 755 mmHg 91%
03:00 +26°C° 0.2 mm 2 m/s 755 mmHg 91%
04:00 +26°C° 0.3 mm 2 m/s 755 mmHg 92%
05:00 +26°C° 0.3 mm 2 m/s 756 mmHg 94%
06:00 +26°C° 0.3 mm 2 m/s 756 mmHg 95%
07:00 +26°C° 0.4 mm 2 m/s 756 mmHg 92%
08:00 +27°C° 0.4 mm 2 m/s 756 mmHg 90%
09:00 +27°C° 0.4 mm 2 m/s 757 mmHg 88%
10:00 +28°C° 0.7 mm 2 m/s 757 mmHg 84%
11:00 +29°C° 0.7 mm 2 m/s 756 mmHg 80%
12:00 +30°C° 0.7 mm 2 m/s 756 mmHg 76%
13:00 +29°C° 1.1 mm 3 m/s 756 mmHg 79%
14:00 +29°C° 1.1 mm 4 m/s 756 mmHg 83%
15:00 +28°C° 1.1 mm 5 m/s 756 mmHg 86%
16:00 +28°C° 0.5 mm 4 m/s 756 mmHg 88%
17:00 +27°C° 0.5 mm 3 m/s 756 mmHg 89%
18:00 +26°C° 0.5 mm 2 m/s 756 mmHg 91%
19:00 +26°C° 0.3 mm 2 m/s 757 mmHg 92%
20:00 +26°C° 0.3 mm 1 m/s 757 mmHg 92%
21:00 +26°C° 0.3 mm 1 m/s 757 mmHg 93%
22:00 +26°C° 0.1 mm 1 m/s 757 mmHg 92%
23:00 +25°C° 0.1 mm 1 m/s 757 mmHg 92%

29 Junho, Terça-feira

Tempo Temperatura Precipitação Vento Pressão Humidade
00:00 +25°C° 0.1 mm 1 m/s 757 mmHg 92%
01:00 +25°C° 0.2 mm 1 m/s 757 mmHg 92%
02:00 +25°C° 0.2 mm 1 m/s 756 mmHg 92%
03:00 +25°C° 0.2 mm 1 m/s 756 mmHg 91%
04:00 +25°C° 0.5 mm 1 m/s 756 mmHg 91%
05:00 +25°C° 0.5 mm 1 m/s 756 mmHg 91%
06:00 +25°C° 0.5 mm 1 m/s 757 mmHg 91%
07:00 +25°C° 0.2 mm 1 m/s 757 mmHg 89%
08:00 +26°C° 0.2 mm 1 m/s 757 mmHg 87%
09:00 +26°C° 0.2 mm 1 m/s 758 mmHg 86%
10:00 +27°C° 0 mm 1 m/s 757 mmHg 82%
11:00 +28°C° 0 mm 1 m/s 757 mmHg 79%
12:00 +29°C° 0 mm 1 m/s 757 mmHg 75%
13:00 +29°C° 0 mm 1 m/s 756 mmHg 75%
14:00 +29°C° 0 mm 1 m/s 756 mmHg 75%
15:00 +29°C° 0 mm 1 m/s 755 mmHg 75%
16:00 +28°C° 0 mm 1 m/s 756 mmHg 77%
17:00 +28°C° 0 mm 2 m/s 756 mmHg 80%
18:00 +27°C° 0 mm 2 m/s 756 mmHg 83%
19:00 +27°C° 0 mm 2 m/s 757 mmHg 84%
20:00 +27°C° 0 mm 1 m/s 757 mmHg 85%
21:00 +27°C° 0 mm 1 m/s 757 mmHg 85%
22:00 +27°C° 0 mm 1 m/s 757 mmHg 85%
23:00 +26°C° 0 mm 2 m/s 757 mmHg 86%
Mostrar mais

Necessitamos do seu Consentimento

A Meteoprog e os seus Fornecedores de Serviços podem armazenar e aceder a dados pessoais como cookies, identificadores do dispositivo ou outras tecnologias semelhantes existentes no seu dispositivo e processar estes dados para personalizar conteúdos e anúncios, assim como funcionalidades nas redes sociais e análise de tráfego.

  • Armazenar e/ou aceder a informações no seu dispositivo

    Os cookies, identificadores do dispositivo ou outras informações podem ser armazenados ou acedidos no seu dispositivo, para os fins acima indicados.

  • Anúncios e conteúdos personalizados, medição de anúncios e conteúdos, dados sobre o público-alvo e desenvolvimento de produtos

    Os anúncios e os conteúdos podem ser personalizados com base num perfil. Podem ser adicionados dados adicionais para uma maior personalização dos anúncios e dos conteúdos. A eficácia dos anúncios e dos conteúdos pode ser medida. Podem ser obtidas informações sobre o público que visualizou os anúncios e os conteúdos. Estes dados podem ser usados para desenvolver ou melhorar sistemas, softwares ou a experiência do utilizador.

Ao clicar em "Eu concordo”, permitirá o uso de cookies, identificadores do dispositivo e web beacons mencionados ou outras tecnologias semelhantes. As configurações do navegador do seu dispositivo podem ser alteradas.

Para certos fins, podem ser invocados interesses legítimos ao invés de consentimento. Pode ler mais informação sobre este assunto na nossa Política de Privacidade e Cookies.